Weather History for KNTU - April, 2013

Change the Weather History Date:

Sunday, April 14, 2013

  Actual Average Record
Temperature  
Mean Temperature 60 °F -  
Max Temperature 70 °F 65 °F 81 °F (2002)
Min Temperature 50 °F 46 °F 41 °F (1997)
Degree Days  
Heating Degree Days 5    
Growing Degree Days 10 (Base 50)    
Moisture  
Dew Point 44 °F    
Average Humidity 60    
Maximum Humidity 89    
Minimum Humidity 31    
Precipitation  
Precipitation 0.00 in - - ()
Sea Level Pressure  
Sea Level Pressure 30.09 in    
Wind  
Wind Speed 9 mph (SSE)    
Max Wind Speed 12 mph    
Max Gust Speed -    
Visibility 10 miles    
Events      
Averages and records for this station are not official NWS values.
T = Trace of Precipitation, MM = Missing Value Source: NWS Daily Summary

Daily Weather History Graph

Daily Weather History Graph

Search for Another Location

Airport or City:

Trip Planner

Search our weather history database for the weather conditions in past years. The results will help you decide how hot, cold, wet, or windy it might be!

Date:

Astronomy

Apr. 14, 2013 Rise Set
Actual Time 6:31 AM EDT 7:38 PM EDT
Civil Twilight 6:04 AM EDT 8:04 PM EDT
Nautical Twilight 5:32 AM EDT 8:36 PM EDT
Astronomical Twilight 4:59 AM EDT 9:09 PM EDT
Moon 9:10 AM EDT (4/14) 11:44 PM EDT (4/14)
Length of Visible Light 14h 00m
Length of Day
13h 06m
Waxing Crescent, 17% of the Moon is Illuminated
Apr 14
Waxing Crescent
Apr 18
First Quarter
Apr 25
Full
May 2
Last Quarter
May 9
New

Hourly Weather History & Observations

Time (EDT) Temp. Dew Point Humidity Pressure Visibility Wind Dir Wind Speed Gust Speed Precip Events Conditions
12:56 AM 54.0 °F 46.0 °F 75% 30.00 in 10.0 mi SSW 10.4 mph - N/A   Clear
1:56 AM 54.0 °F 46.0 °F 75% 30.00 in 10.0 mi SW 11.5 mph - N/A   Clear
2:56 AM 53.1 °F 46.0 °F 77% 30.00 in 10.0 mi SW 10.4 mph - N/A   Clear
3:56 AM 53.1 °F 46.0 °F 77% 30.00 in 10.0 mi WSW 10.4 mph - N/A   Clear
4:56 AM 51.1 °F 46.0 °F 83% 30.02 in 10.0 mi WSW 8.1 mph - N/A   Clear
5:56 AM 50.0 °F 46.0 °F 86% 30.03 in 10.0 mi SW 9.2 mph - N/A   Clear
6:56 AM 50.0 °F 46.9 °F 89% 30.05 in 9.0 mi SW 6.9 mph - N/A   Clear
7:56 AM 53.1 °F 48.9 °F 86% 30.08 in 9.0 mi WSW 5.8 mph - N/A   Clear
8:56 AM 57.9 °F 50.0 °F 75% 30.09 in 10.0 mi WSW 4.6 mph - N/A   Scattered Clouds
9:56 AM 64.9 °F 45.0 °F 48% 30.11 in 10.0 mi NW 8.1 mph - N/A   Partly Cloudy
10:56 AM 66.9 °F 43.0 °F 42% 30.11 in 10.0 mi North 6.9 mph - N/A   Clear
11:56 AM 70.0 °F 37.9 °F 31% 30.12 in 10.0 mi Variable 4.6 mph - N/A   Partly Cloudy
12:56 PM 68.0 °F 39.0 °F 35% 30.12 in 10.0 mi ENE 8.1 mph - N/A   Partly Cloudy
1:56 PM 68.0 °F 41.0 °F 37% 30.12 in 10.0 mi East 11.5 mph - N/A   Scattered Clouds
2:56 PM 66.0 °F 43.0 °F 43% 30.13 in 10.0 mi ESE 11.5 mph - N/A   Mostly Cloudy
3:56 PM 66.0 °F 43.0 °F 43% 30.11 in 10.0 mi ESE 11.5 mph - N/A   Mostly Cloudy
4:56 PM 66.0 °F 39.0 °F 37% 30.10 in 10.0 mi ESE 10.4 mph - N/A   Mostly Cloudy
5:56 PM 62.1 °F 37.9 °F 41% 30.12 in 10.0 mi ESE 11.5 mph - N/A   Mostly Cloudy
6:56 PM 59.0 °F 42.1 °F 53% 30.11 in 10.0 mi ESE 9.2 mph - N/A   Mostly Cloudy
7:56 PM 57.9 °F 42.1 °F 56% 30.12 in 10.0 mi SE 8.1 mph - N/A   Overcast
8:56 PM 57.0 °F 44.1 °F 62% 30.14 in 10.0 mi ESE 9.2 mph - N/A   Overcast
9:56 PM 57.9 °F 44.1 °F 60% 30.16 in 10.0 mi SSE 8.1 mph - N/A   Overcast
10:56 PM 57.9 °F 45.0 °F 62% 30.14 in 10.0 mi SE 8.1 mph - N/A   Overcast
11:56 PM 57.9 °F 46.0 °F 65% 30.12 in 10.0 mi SE 11.5 mph - N/A   Overcast